Location: Bastrop State Park
(30.1090°N, 97.2819°W)
Time: 16:10:30
(UTC-05:00)

Daily predictions for brighter satellites

Satellite Brightness Start Highest point End
(mag) Time Altitude Azimuth Time Altitude Azimuth Time Altitude Azimuth
CZ-4 DEB 4.4 20:56:40 10° ESE 20:58:57 19° ENE 21:01:14 10° NNE
SL-27 R/B 3.9 20:56:51 10° NNE 20:59:48 23° ENE 21:02:32 11° ESE
CZ-2D R/B 3.3 20:57:56 10° SSE 21:01:41 60° ENE 21:05:27 10° N
CZ-4B DEB 3.3 20:58:51 10° S 21:02:05 63° W 21:05:20 10° NNW
GPS 2-05 Rocket1 3.9 20:58:32 10° W 21:02:10 48° NNW 21:05:45 10° ENE
Abrixas rocket 3.4 21:00:30 10° WNW 21:03:41 38° SW 21:06:51 10° SSE
USA 215 4.1 21:00:56 10° SSE 21:07:09 46° SW 21:13:25 10° NW
ERBS 2.4 21:06:56 10° NNW 21:10:23 65° NE 21:13:13 14° SE
Envisat 4.4 21:09:02 12° ESE 21:12:14 20° ENE 21:15:55 10° NNE
Cosmos 2184 Rocket 3.9 21:06:31 10° S 21:12:39 81° E 21:18:50 10° N
SEDSat Delta rocket 3.3 21:08:34 10° SW 21:12:58 45° SSE 21:16:42 12° E
H-2A R/B 3.8 21:12:33 12° ESE 21:14:36 17° ENE 21:17:18 10° NNE
Intelsat 3F5 C 4.1 21:11:42 10° W 21:15:07 88° N 21:17:42 14° E
CZ-3C R/B 3.9 20:07:29 10° WSW 21:16:28 47° S 21:23:56 15° ESE
OAO 1 Rocket 4.4 21:13:21 10° WSW 21:18:41 87° SSE 21:24:00 10° ENE
Cosmos 1892 3.8 21:19:36 10° SSW 21:23:16 46° W 21:27:00 10° N
Cosmos 1606 4.0 21:20:15 10° NNE 21:23:28 24° E 21:24:55 19° ESE
ALOS 2.6 21:20:54 10° S 21:25:31 66° WSW 21:30:11 10° NNW
ERS-1 Rocket 3.4 21:22:47 15° SE 21:26:42 43° ENE 21:31:27 10° N
Meteor 1-27 Rocket 4.1 21:29:29 10° N 21:34:42 41° E 21:37:56 21° SE
Cosmos 407 Rocket 3.7 21:30:07 10° N 21:35:18 54° ENE 21:38:44 21° SE
H-2A R/B 3.6 21:32:46 10° S 21:36:20 47° W 21:39:56 10° NNW
USA 186 3.2 21:37:26 10° SSW 21:40:17 36° W 21:43:18 10° NNW
Cosmos 1452 Rocket 3.6 21:36:23 10° SSW 21:41:38 81° WNW 21:46:56 10° NNE
Cosmos 1782 2.7 21:39:16 10° N 21:43:19 86° E 21:46:08 19° S
Okean 2 Rocket 3.7 21:45:11 29° SE 21:46:26 35° E 21:50:27 10° NNE
Cosmos 1674 Rocket 3.5 21:42:25 10° N 21:46:53 86° W 21:50:12 17° S
Cosmos 1190 Rocket 4.0 21:45:48 10° NNW 21:51:00 81° WSW 21:54:37 20° S
Cosmos 1184 Rocket 2.7 21:52:57 50° SE 21:53:31 61° E 21:56:49 10° NNE
ATLAS 5 CENTAUR R/B 3.0 21:47:58 10° NW 21:54:03 58° WSW 21:58:59 17° S
Cosmos 1939 Rocket 2.8 21:52:48 38° SE 21:54:04 63° ENE 21:57:56 10° N
OAO 3 Rocket 3.2 21:49:36 10° WSW 21:54:35 87° NNW 21:58:14 18° ENE
ISS -0.1 21:52:58 10° WNW 21:54:57 15° NW 21:56:55 10° N
Orbus 7S 4.0 21:49:51 10° W 21:54:59 43° SSW 21:55:25 40° S
YAOGAN 6 4.4 21:56:00 17° NE 21:56:00 17° NE 21:57:42 10° NNE
Cosmos 1408 2.4 21:55:09 29° S 21:56:56 83° E 22:00:35 10° N
Cosmos 1782 Rocket 3.5 21:54:44 28° SSE 21:56:58 62° E 22:01:23 10° NNE
Atlas Centaur 2 0.9 21:53:50 10° W 21:57:25 68° SSW 21:57:58 56° SE
Sich 1 Rocket 4.5 21:53:43 10° SSW 21:58:09 51° W 22:02:37 10° N
Cosmos 1242 Rocket 4.3 21:55:59 10° NNE 21:58:03 20° ENE 21:58:03 20° ENE
Nadezhda 3 Rocket 4.0 21:59:45 10° N 22:06:08 78° E 22:09:52 27° SSE
SPOT 5 3.3 22:04:32 38° ESE 22:06:09 51° ENE 22:11:20 10° N
CENTAUR R/B 4.0 21:59:23 10° NW 22:06:59 45° WSW 22:14:08 12° S
Cosmos 1238 Rocket 2.7 22:03:39 10° N 22:07:10 60° E 22:07:26 58° ESE
Cosmos 1825 2.5 22:05:45 23° SSW 22:07:58 65° W 22:11:46 10° N
Centaur AC-119 3.8 22:06:34 10° WSW 22:07:02 14° WSW 22:07:02 14° WSW
MetOp-A 4.3 22:13:07 43° ESE 22:14:20 52° ENE 22:19:30 10° N
Cosmos 2278 Rocket 3.1 22:09:35 10° SW 22:15:03 49° WNW 22:20:33 10° N
Cosmos 1833 Rocket 4.4 22:13:24 10° NNE 22:17:05 18° ENE 22:17:28 17° ENE
Cosmos 1975 Rocket 3.0 22:13:41 10° N 22:17:58 60° E 22:18:01 60° E
UNK 4.3 22:14:48 10° NNE 22:20:55 73° ESE 22:23:43 32° S
Meteosat 1 Rocket2 4.2 22:15:27 10° W 22:21:13 72° S 22:24:32 38° ESE
Cosmos 676 Rocket 4.1 22:16:42 10° NNW 22:21:53 70° WSW 22:23:43 40° S
Cosmos 1174 4.3 22:19:33 10° NNW 22:21:43 41° NW 22:21:43 41° NW
COS B Rocket 3.9 22:21:13 10° N 22:24:54 47° W 22:25:27 43° WSW
Cosmos 1954 Rocket 3.9 22:20:37 10° NNW 22:25:51 86° WSW 22:27:03 54° S
Cosmos 2341 Rocket 4.4 22:20:32 10° SSW 22:26:46 63° W 22:33:00 10° N
Cosmos 1378 Rocket 4.0 22:24:17 10° NNW 22:28:31 57° W 22:29:29 45° SW
SL-8 Rocket 3.9 22:34:24 39° S 22:36:55 88° E 22:43:11 10° N
BREEZE-M DEB (TANK) 4.1 22:29:15 10° NW 22:37:16 32° NNE 22:38:18 28° NE
Meteor 1-14 Rocket 4.1 22:36:24 54° S 22:37:46 85° E 22:43:23 10° N
Cosmos 1741 Rocket 4.2 22:35:51 10° N 22:40:43 57° ENE 22:40:43 57° ENE
Cosmos 2082 Rocket 3.0 22:35:45 10° N 22:40:49 37° ENE 22:40:49 37° ENE
Cosmos 1023 Rocket 4.3 22:40:12 10° NNW 22:45:20 86° WSW 22:45:25 85° SW
Intercosmos 25 4.4 22:47:34 39° NW 22:47:34 39° NW 22:50:04 10° N
Timation 2 Rocket 3.7 22:42:50 10° NNW 22:48:49 76° ENE 22:49:13 73° ESE
H-2A R/B 3.5 22:49:42 29° WSW 22:50:21 30° W 22:54:08 10° NW
Envisat 4.3 22:49:15 27° SW 22:50:57 35° W 22:55:34 10° NNW
Cosmos 2151 Rocket 4.3 22:53:44 51° N 22:53:44 51° N 22:57:09 10° N
NOAA 11 4.2 22:57:39 75° NE 22:57:39 75° NE 23:02:50 10° N
CZ-4 R/B 4.4 22:59:07 10° N 23:02:41 51° N 23:02:41 51° N
Cosmos 864 Rocket 4.4 23:06:30 73° SW 23:07:00 78° W 23:13:10 10° N
Cosmos 614 Rocket 4.3 23:02:32 10° NNW 23:06:40 59° NNW 23:06:40 59° NNW
Cosmos 2366 rocket 4.4 23:16:58 52° WSW 23:18:00 58° W 23:24:15 10° N
H-2A R/B 2.9 23:22:52 45° NNE 23:22:52 45° NNE 23:26:36 10° N
ARGOS 3.9 23:28:02 47° WNW 23:28:02 47° WNW 23:32:26 10° NNW
USA 234 3.2 23:23:16 10° NE 23:29:47 79° NW 23:30:12 75° W
Terra 3.5 23:35:41 29° N 23:35:41 29° N 23:38:02 10° N
CZ-3 Stage 3 3.9 22:30:11 10° W 23:35:31 88° S 23:37:01 67° ESE
